DW6610 Weather Reports


time (UTC)temp
F
wind
direction
speed
knots
gust
knots
rain 1hr
in
rain 24hr
in
rain mn
in
humidity
%
barometer
mb
20260903222555 102 44 0.9 3.5 0.00 0.00 0.00 44 1013.8
20260903222051 102 86 0.9 5.2 0.00 0.00 0.00 46 1013.7
20260903221606 102 91 0.9 5.2 0.00 0.00 0.00 45 1013.8
20260903221051 102 63 1.7 5.2 0.00 0.00 0.00 45 1013.8
20260903220552 101 78 0.9 3.5 0.00 0.00 0.00 46 1013.7
20260903220116 102 65 0.9 4.3 0.00 0.00 0.00 46 1013.8
20260903215551 102 79 0.9 5.2 0.00 0.00 0.00 45 1013.7
20260903215052 102 9 1.7 5.2 0.00 0.00 0.00 46 1013.8
20260903214606 103 338 0.9 6.1 0.00 0.00 0.00 46 1013.7
20260903214051 102 113 1.7 6.1 0.00 0.00 0.00 48 1013.8
20260903213552 102 68 0.9 4.3 0.00 0.00 0.00 45 1013.8
20260903213105 103 82 0.9 4.3 0.00 0.00 0.00 47 1013.8
20260903212551 102 80 0.9 4.3 0.00 0.00 0.00 46 1014.0
20260903212051 102 86 0.9 4.3 0.00 0.00 0.00 46 1014.0
20260903211603 102 86 1.7 4.3 0.00 0.00 0.00 45 1014.0
20260903211052 103 84 1.7 4.3 0.00 0.00 0.00 47 1014.0
20260903210552 103 356 0.9 2.6 0.00 0.00 0.00 47 1014.1
20260903205554 102 164 0.0 4.3 0.00 0.00 0.00 46 1014.3
20260903205051 102 30 0.9 4.3 0.00 0.00 0.00 46 1014.5
20260903204608 102 67 0.9 6.1 0.00 0.00 0.00 45 1014.5
20260903204051 102 68 1.7 6.1 0.00 0.00 0.00 46 1014.5
20260903203555 102 72 1.7 5.2 0.00 0.00 0.00 46 1014.6
20260903203102 102 83 1.7 5.2 0.00 0.00 0.00 47 1014.6
20260903202555 102 115 1.7 3.5 0.00 0.00 0.00 47 1014.7
20260903202051 101 105 1.7 3.5 0.00 0.00 0.00 47 1014.6
20260903201607 101 90 0.9 3.5 0.00 0.00 0.00 49 1014.8
20260903201052 102 70 0.9 3.5 0.00 0.00 0.00 46 1014.9
20260903200552 102 91 1.7 3.5 0.00 0.00 0.00 48 1015.0
20260903200108 102 84 1.7 5.2 0.00 0.00 0.00 48 1015.0
20260903195555 103 102 0.9 5.2 0.00 0.00 0.00 47 1015.0
20260903195051 102 59 1.7 5.2 0.00 0.00 0.00 49 1015.1
20260903194601 102 57 0.0 3.5 0.00 0.00 0.00 52 1015.2
20260903194052 101 83 1.7 3.5 0.00 0.00 0.00 50 1015.3
20260903193551 101 56 0.9 4.3 0.00 0.00 0.00 51 1015.3
20260903193101 100 27 0.9 5.2 0.00 0.00 0.00 48 1015.4
20260903192552 101 86 1.7 5.2 0.00 0.00 0.00 48 1015.5
20260903192052 101 86 0.9 3.5 0.00 0.00 0.00 49 1015.6
20260903191607 102 70 0.9 3.5 0.00 0.00 0.00 50 1015.6
20260903191051 102 62 0.9 3.5 0.00 0.00 0.00 49 1015.7
20260903190551 101 52 0.0 2.6 0.00 0.00 0.00 51 1015.8
20260903190106 100 99 0.9 4.3 0.00 0.00 0.00 51 1015.8
20260903185551 99 103 1.7 4.3 0.00 0.00 0.00 56 1015.9
20260903185051 99 87 1.7 3.5 0.00 0.00 0.00 55 1015.9
20260903184601 100 106 0.9 2.6 0.00 0.00 0.00 53 1015.9
20260903184052 99 259 0.0 4.3 0.00 0.00 0.00 51 1015.9
20260903183551 99 88 1.7 4.3 0.00 0.00 0.00 54 1016.1
20260903183104 98 84 0.9 3.5 0.00 0.00 0.00 57 1016.1
20260903182554 98 95 1.7 5.2 0.00 0.00 0.00 54 1016.2
20260903182051 98 109 1.7 5.2 0.00 0.00 0.00 55 1016.3
20260903181559 98 86 1.7 3.5 0.00 0.00 0.00 52 1016.4
20260903181055 99 110 0.0 3.5 0.00 0.00 0.00 51 1016.3
20260903180552 99 98 0.9 3.5 0.00 0.00 0.00 54 1016.5
20260903175552 99 248 0.0 3.5 0.00 0.00 0.00 54 1016.5
20260903175051 99 94 0.9 3.5 0.00 0.00 0.00 55 1016.6
20260903174600 98 96 0.9 2.6 0.00 0.00 0.00 56 1016.7
20260903174051 97 267 0.9 2.6 0.00 0.00 0.00 53 1016.6
20260903173552 97 0 0.0 6.1 0.00 0.00 0.00 56 1016.7
20260903173107 97 77 0.9 6.1 0.00 0.00 0.00 53 1016.7
20260903172552 98 323 1.7 5.2 0.00 0.00 0.00 52 1016.8
20260903172052 98 69 1.7 5.2 0.00 0.00 0.00 53 1016.9
20260903171600 98 77 2.6 5.2 0.00 0.00 0.00 58 1017.0
20260903171051 99 75 1.7 5.2 0.00 0.00 0.00 56 1017.1
20260903170552 99 46 1.7 4.3 0.00 0.00 0.00 58 1017.1
20260903170110 99 85 0.9 3.5 0.00 0.00 0.00 55 1017.2
20260903165552 98 96 0.9 2.6 0.00 0.00 0.00 56 1017.3
20260903165051 99 115 0.9 3.5 0.00 0.00 0.00 55 1017.2
20260903164603 99 75 0.9 4.3 0.00 0.00 0.00 56 1017.4
20260903164051 98 233 1.7 4.3 0.00 0.00 0.00 57 1017.4
20260903163551 98 0 1.7 4.3 0.00 0.00 0.00 57 1017.3
20260903163113 98 107 1.7 3.5 0.00 0.00 0.00 59 1017.5
20260903162552 99 158 0.9 3.5 0.00 0.00 0.00 54 1017.4
20260903162052 98 0 0.0 3.5 0.00 0.00 0.00 59 1017.5
20260903161612 97 84 0.0 2.6 0.00 0.00 0.00 59 1017.6
20260903161052 96 104 0.9 1.7 0.00 0.00 0.00 60 1017.5
20260903160553 97 231 0.9 2.6 0.00 0.00 0.00 56 1017.6
20260903160107 97 53 0.0 3.5 0.00 0.00 0.00 58 1017.6
20260903155552 97 50 0.9 3.5 0.00 0.00 0.00 57 1017.6
20260903155051 97 77 1.7 3.5 0.00 0.00 0.00 57 1017.5
20260903154600 97 81 0.0 2.6 0.00 0.00 0.00 61 1017.6
20260903154051 97 92 0.0 2.6 0.00 0.00 0.00 61 1017.6
20260903153551 96 61 0.9 2.6 0.00 0.00 0.00 63 1017.7
20260903153101 96 0 0.0 2.6 0.00 0.00 0.00 60 1017.7
20260903152552 96 107 0.9 2.6 0.00 0.00 0.00 57 1017.7
20260903152051 96 90 0.9 2.6 0.00 0.00 0.00 60 1017.6
20260903151605 95 88 0.0 2.6 0.00 0.00 0.00 64 1017.6
20260903151052 95 114 0.0 2.6 0.00 0.00 0.00 66 1017.6
20260903150552 95 148 0.0 2.6 0.00 0.00 0.00 65 1017.5
20260903150119 95 0 0.9 2.6 0.00 0.00 0.00 63 1017.6
20260903145551 94 131 0.0 1.7 0.00 0.00 0.00 68 1017.7
20260903145051 94 55 0.0 1.7 0.00 0.00 0.00 66 1017.7
20260903144603 93 115 0.0 2.6 0.00 0.00 0.00 69 1017.7
20260903144051 92 70 0.9 2.6 0.00 0.00 0.00 68 1017.6
20260903143551 92 50 0.9 2.6 0.00 0.00 0.00 68 1017.7
20260903143104 92 92 0.9 2.6 0.00 0.00 0.00 70 1017.7
20260903142552 92 145 0.0 1.7 0.00 0.00 0.00 67 1017.7
20260903142056 92 59 0.9 2.6 0.00 0.00 0.00 68 1017.7
20260903141606 92 72 0.9 2.6 0.00 0.00 0.00 65 1017.6
20260903141054 92 0 0.0 0.9 0.00 0.00 0.00 67 1017.6
20260903140552 92 82 0.0 0.9 0.00 0.00 0.00 68 1017.5
20260903140101 91 0 0.0 0.9 0.00 0.00 0.00 71 1017.5
20260903135551 91 82 0.0 0.9 0.00 0.00 0.00 69 1017.6
20260903135051 91 0 0.0 0.9 0.00 0.00 0.00 69 1017.7
20260903134602 90 0 0.0 0.9 0.00 0.00 0.00 72 1017.7
20260903134053 89 0 0.0 0.9 0.00 0.00 0.00 72 1017.6
20260903133552 88 0 0.0 0.9 0.00 0.00 0.00 75 1017.6
20260903133107 87 0 0.0 0.9 0.00 0.00 0.00 76 1017.7
20260903132552 86 0 0.0 0.9 0.00 0.00 0.00 79 1017.7
20260903132051 84 0 0.0 0.9 0.00 0.00 0.00 81 1017.7
20260903131605 82 0 0.0 0.0 0.00 0.00 0.00 85 1017.9
20260903131052 80 0 0.0 0.9 0.00 0.00 0.00 88 1017.9
20260903130554 79 0 0.0 0.9 0.00 0.00 0.00 89 1018.0
20260903130111 78 0 0.0 0.9 0.00 0.00 0.00 89 1018.0
20260903125553 77 82 0.0 0.9 0.00 0.00 0.00 92 1017.9
20260903125051 76 0 0.0 0.9 0.00 0.00 0.00 93 1017.8
20260903124607 75 0 0.0 0.9 0.00 0.00 0.00 93 1017.8
20260903124051 75 81 0.0 0.9 0.00 0.00 0.00 94 1017.9
20260903123551 75 81 0.0 0.9 0.00 0.00 0.00 95 1017.9
20260903123105 74 0 0.0 0.9 0.00 0.00 0.00 95 1017.9
20260903122553 74 0 0.0 0.0 0.00 0.00 0.00 96 1017.7
20260903122051 74 0 0.0 0.0 0.00 0.00 0.00 96 1017.6
20260903121601 74 0 0.0 0.0 0.00 0.00 0.00 96 1017.4
20260903121052 74 0 0.0 0.0 0.00 0.00 0.00 96 1017.3
20260903120554 73 0 0.0 0.0 0.00 0.00 0.00 96 1017.4
20260903115551 73 0 0.0 0.0 0.00 0.00 0.00 96 1017.4
20260903115052 73 0 0.0 0.0 0.00 0.00 0.00 96 1017.3
20260903114619 73 0 0.0 0.0 0.00 0.00 0.00 96 1017.3
20260903114055 73 0 0.0 0.0 0.00 0.00 0.00 96 1017.2
20260903113551 73 0 0.0 0.9 0.00 0.00 0.00 96 1017.1
20260903113106 73 0 0.0 0.9 0.00 0.00 0.00 95 1017.1
20260903112553 73 0 0.0 0.9 0.00 0.00 0.00 96 1017.1
20260903112052 73 0 0.0 0.9 0.00 0.00 0.00 95 1017.2
20260903111617 73 0 0.0 0.9 0.00 0.00 0.00 95 1017.0
20260903111051 73 0 0.0 0.9 0.00 0.00 0.00 95 1017.0
20260903110550 74 0 0.0 0.0 0.00 0.00 0.00 95 1016.9
20260903110110 74 0 0.0 0.0 0.00 0.00 0.00 95 1016.8
20260903105554 74 0 0.0 0.0 0.00 0.00 0.00 95 1016.9
20260903105055 74 0 0.0 0.0 0.00 0.00 0.00 94 1016.9
20260903104615 74 0 0.0 0.0 0.00 0.00 0.00 94 1016.8
20260903104051 74 0 0.0 0.0 0.00 0.00 0.00 94 1016.7
20260903103551 74 0 0.0 0.0 0.00 0.00 0.00 93 1016.8
20260903103117 74 0 0.0 0.0 0.00 0.00 0.00 93 1016.7
20260903102552 74 0 0.0 0.0 0.00 0.00 0.00 93 1016.8
20260903102053 74 0 0.0 0.0 0.00 0.00 0.00 93 1016.8
20260903101607 74 0 0.0 0.0 0.00 0.00 0.00 93 1016.8
20260903101052 74 0 0.0 0.0 0.00 0.00 0.00 92 1016.7
20260903100555 74 0 0.0 0.0 0.00 0.00 0.00 92 1016.8
20260903100105 74 0 0.0 0.0 0.00 0.00 0.00 92 1016.7
20260903095551 74 0 0.0 0.0 0.00 0.00 0.00 93 1016.7
20260903095051 74 0 0.0 0.0 0.00 0.00 0.00 92 1016.7
20260903094604 74 0 0.0 0.0 0.00 0.00 0.00 92 1016.6
20260903094052 74 0 0.0 0.0 0.00 0.00 0.00 92 1016.6
20260903093552 74 0 0.0 0.0 0.00 0.00 0.00 92 1016.7
20260903093128 74 0 0.0 0.0 0.00 0.00 0.00 91 1016.6
20260903092551 74 0 0.0 0.0 0.00 0.00 0.00 91 1016.6
20260903092052 74 0 0.0 0.0 0.00 0.00 0.00 91 1016.6
20260903091608 74 0 0.0 0.0 0.00 0.00 0.00 91 1016.7
20260903091052 75 0 0.0 0.0 0.00 0.00 0.00 91 1016.5
20260903090553 75 0 0.0 0.0 0.00 0.00 0.00 91 1016.6
20260903085552 75 0 0.0 0.0 0.00 0.00 0.00 91 1016.6
20260903085051 75 0 0.0 0.9 0.00 0.00 0.00 91 1016.5
20260903084600 75 0 0.0 0.9 0.00 0.00 0.00 91 1016.6
20260903084051 75 0 0.0 0.9 0.00 0.00 0.00 91 1016.6
20260903083553 75 0 0.0 0.0 0.00 0.00 0.00 91 1016.5
20260903083100 75 0 0.0 0.0 0.00 0.00 0.00 91 1016.5
20260903082552 75 0 0.0 0.0 0.00 0.00 0.00 91 1016.5
20260903082052 76 0 0.0 0.0 0.00 0.00 0.00 91 1016.4
20260903081603 76 0 0.0 0.0 0.00 0.00 0.00 91 1016.4
20260903081052 76 0 0.0 0.0 0.00 0.00 0.00 90 1016.4
20260903080553 75 0 0.0 0.0 0.00 0.00 0.00 90 1016.4
20260903080059 76 0 0.0 0.0 0.00 0.00 0.00 89 1016.4
20260903075552 76 0 0.0 0.0 0.00 0.00 0.00 89 1016.3
20260903075055 76 0 0.0 0.0 0.00 0.00 0.00 89 1016.4
20260903074600 76 0 0.0 0.0 0.00 0.00 0.00 90 1016.3
20260903074051 76 0 0.0 0.0 0.00 0.00 0.00 90 1016.4
20260903073554 76 0 0.0 0.0 0.00 0.00 0.00 89 1016.3
20260903073101 76 0 0.0 0.0 0.00 0.00 0.00 89 1016.3
20260903072551 76 0 0.0 0.0 0.00 0.00 0.00 88 1016.3
20260903072052 77 0 0.0 0.0 0.00 0.00 0.00 88 1016.3
20260903071629 77 0 0.0 0.9 0.00 0.00 0.00 88 1016.4
20260903071052 77 0 0.0 0.9 0.00 0.00 0.00 87 1016.4
20260903070552 77 0 0.0 0.9 0.00 0.00 0.00 87 1016.4
20260903070111 78 0 0.0 0.9 0.00 0.00 0.00 87 1016.4
20260903065552 78 0 0.0 0.9 0.00 0.00 0.00 86 1016.5
20260903065051 78 0 0.0 0.9 0.00 0.00 0.00 85 1016.5
20260903064606 78 0 0.0 0.9 0.00 0.00 0.00 84 1016.5
20260903064052 79 77 0.0 0.9 0.00 0.00 0.00 84 1016.5
20260903063552 79 0 0.0 0.9 0.00 0.00 0.00 83 1016.4
20260903063107 79 0 0.0 0.9 0.00 0.00 0.00 82 1016.5
20260903062554 79 0 0.0 2.6 0.00 0.00 0.00 82 1016.6
20260903062053 79 0 0.0 2.6 0.00 0.00 0.00 82 1016.6
20260903061611 79 60 0.9 2.6 0.00 0.00 0.00 83 1016.5
20260903061051 78 66 0.0 1.7 0.00 0.00 0.00 84 1016.4
20260903060551 78 0 0.0 1.7 0.00 0.00 0.00 87 1016.6
20260903060107 78 112 0.0 0.9 0.00 0.00 0.00 88 1016.6
20260903055553 78 112 0.0 0.9 0.00 0.00 0.00 89 1016.6
20260903055051 78 0 0.0 0.9 0.00 0.00 0.00 89 1016.6
20260903054600 78 0 0.0 0.9 0.00 0.00 0.00 88 1016.6
20260903054052 78 0 0.0 0.0 0.00 0.00 0.00 88 1016.5
20260903053551 78 0 0.0 0.0 0.00 0.00 0.00 89 1016.5
20260903053103 78 0 0.0 0.0 0.00 0.00 0.00 88 1016.6
20260903052552 78 0 0.0 0.9 0.00 0.00 0.00 88 1016.6
20260903052052 78 0 0.0 0.9 0.00 0.00 0.00 89 1016.5
20260903051610 78 0 0.0 0.9 0.00 0.00 0.00 89 1016.5
20260903051051 78 0 0.0 0.9 0.00 0.00 0.00 90 1016.5
20260903050551 78 0 0.0 0.9 0.00 0.00 0.00 90 1016.5
20260903050115 78 0 0.0 0.9 0.00 0.00 0.00 90 1016.5
20260903045551 79 0 0.0 0.9 0.00 0.00 0.00 90 1016.5
20260903045051 79 0 0.0 0.9 0.00 0.00 0.00 90 1016.5
20260903044606 79 0 0.0 0.9 0.00 0.00 0.00 89 1016.5
20260903044052 79 0 0.0 0.0 0.00 0.00 0.00 87 1016.5
20260903043552 79 0 0.0 0.0 0.00 0.00 0.00 86 1016.4
20260903043103 79 0 0.0 0.0 0.00 0.00 0.00 86 1016.4
20260903042551 79 0 0.0 0.9 0.00 0.00 0.00 86 1016.4
20260903042054 79 0 0.0 0.9 0.00 0.00 0.00 86 1016.4
20260903041612 79 0 0.0 0.9 0.00 0.00 0.00 86 1016.4
20260903041051 79 0 0.0 0.0 0.00 0.00 0.00 85 1016.4
20260903040554 80 0 0.0 0.9 0.00 0.00 0.00 85 1016.4
20260903040111 80 0 0.0 0.9 0.00 0.00 0.00 85 1016.5
20260903035551 80 0 0.0 0.9 0.00 0.00 0.00 85 1016.5
20260903035051 80 0 0.0 0.9 0.00 0.00 0.00 85 1016.4
20260903034609 80 0 0.0 0.9 0.00 0.00 0.00 84 1016.5
20260903034052 81 126 0.0 0.9 0.00 0.00 0.00 84 1016.4
20260903033551 80 97 0.0 0.9 0.00 0.00 0.00 83 1016.4
20260903033103 80 94 0.0 0.0 0.00 0.00 0.00 83 1016.5
20260903032551 79 0 0.0 0.0 0.00 0.00 0.00 85 1016.5
20260903032052 79 0 0.0 0.0 0.00 0.00 0.00 85 1016.5
20260903031557 80 0 0.0 0.0 0.00 0.00 0.00 85 1016.5
20260903031054 80 0 0.0 0.0 0.00 0.00 0.00 85 1016.5
20260903030554 80 0 0.0 0.0 0.00 0.00 0.00 86 1016.6
20260903030103 80 0 0.0 0.0 0.00 0.00 0.00 85 1016.6
20260903025550 81 0 0.0 0.9 0.00 0.00 0.00 85 1016.5
20260903025053 81 0 0.0 0.9 0.00 0.00 0.00 84 1016.5
20260903024604 81 0 0.0 0.0 0.00 0.00 0.00 84 1016.4
20260903024052 81 0 0.0 0.0 0.00 0.00 0.00 83 1016.5
20260903023551 81 0 0.0 0.0 0.00 0.00 0.00 83 1016.4
20260903023103 82 0 0.0 0.9 0.00 0.00 0.00 82 1016.4
20260903022554 82 0 0.0 0.9 0.00 0.00 0.00 82 1016.4
20260903022051 82 93 0.0 0.9 0.00 0.00 0.00 82 1016.3
20260903021605 83 0 0.0 0.9 0.00 0.00 0.00 81 1016.3
20260903021054 83 0 0.0 0.9 0.00 0.00 0.00 80 1016.2
20260903020554 83 0 0.0 0.9 0.00 0.00 0.00 79 1016.1
20260903020104 83 0 0.0 0.9 0.00 0.00 0.00 79 1016.1
20260903015552 83 0 0.0 0.0 0.00 0.00 0.00 77 1016.0
20260903015052 83 0 0.0 0.9 0.00 0.00 0.00 77 1015.9
20260903014625 83 0 0.0 0.9 0.00 0.00 0.00 77 1015.9
20260903014054 84 0 0.0 0.9 0.00 0.00 0.00 79 1015.9
20260903013552 84 0 0.0 0.9 0.00 0.00 0.00 79 1015.7
20260903013110 84 94 0.0 0.9 0.00 0.00 0.00 78 1015.7
20260903012551 84 94 0.0 0.9 0.00 0.00 0.00 78 1015.8
20260903012052 84 0 0.0 0.0 0.00 0.00 0.00 78 1015.8
20260903011603 85 0 0.0 0.0 0.00 0.00 0.00 77 1015.7
20260903011052 85 0 0.0 0.9 0.00 0.00 0.00 76 1015.6
20260903010551 86 0 0.0 0.9 0.00 0.00 0.00 76 1015.6
20260903005553 86 0 0.0 0.9 0.00 0.00 0.00 73 1015.5
20260903005052 87 0 0.0 0.9 0.00 0.00 0.00 72 1015.6
20260903004602 87 0 0.0 0.0 0.00 0.00 0.00 72 1015.5
20260903004051 87 0 0.0 0.0 0.00 0.00 0.00 70 1015.5
20260903003552 88 0 0.0 0.0 0.00 0.00 0.00 70 1015.6
20260903003120 88 0 0.0 0.9 0.00 0.00 0.00 70 1015.5
20260903002551 89 0 0.0 0.9 0.00 0.00 0.00 67 1015.5
20260903002050 89 0 0.0 0.0 0.00 0.00 0.00 68 1015.6
20260903001603 90 0 0.0 0.0 0.00 0.00 0.00 67 1015.5
20260903001052 90 0 0.0 0.0 0.00 0.00 0.00 66 1015.5
20260903000553 91 0 0.0 0.9 0.00 0.00 0.00 64 1015.6
20260903000109 91 0 0.0 0.9 0.00 0.00 0.00 63 1015.6
20260902235552 91 0 0.0 0.0 0.00 0.00 0.00 60 1015.6
20260902235055 92 0 0.0 0.0 0.00 0.00 0.00 58 1015.6
20260902234606 92 0 0.0 0.9 0.00 0.00 0.00 57 1015.6
20260902234053 93 0 0.0 0.9 0.00 0.00 0.00 55 1015.6
20260902233550 93 93 0.0 0.9 0.00 0.00 0.00 55 1015.6
20260902233100 94 0 0.0 0.9 0.00 0.00 0.00 55 1015.6
20260902232552 94 0 0.0 0.9 0.00 0.00 0.00 54 1015.6
20260902232051 95 0 0.0 0.9 0.00 0.00 0.00 54 1015.7
20260902231607 95 0 0.0 0.9 0.00 0.00 0.00 52 1015.7
20260902231052 95 0 0.0 0.9 0.00 0.00 0.00 51 1015.7
20260902230551 96 0 0.0 0.9 0.00 0.00 0.00 50 1015.8
20260902230119 96 0 0.0 0.9 0.00 0.00 0.00 49 1015.7
20260902225554 97 100 0.0 1.7 0.00 0.00 0.00 48 1015.6
20260902225053 98 101 0.0 1.7 0.00 0.00 0.00 47 1015.7
20260902224612 98 84 0.0 1.7 0.00 0.00 0.00 46 1015.7
20260902224051 99 0 0.0 1.7 0.00 0.00 0.00 45 1015.7
20260902223554 100 92 0.9 1.7 0.00 0.00 0.00 44 1015.7
20260902223114 100 70 0.9 1.7 0.00 0.00 0.00 45 1015.7